When you browse on this site, cookies collect data to enhance your experience and personalize the content and advertising you see.
Visit our Privacy Policy to learn more. By continuing to use the site, you agree to this use of cookies and data.

Tiempo cada hora Revolyucii

Hoy, 7 Agosto, Viernes

Tiempo Temperatura Precipitaciones Viento Presión Humedad
00:00 +19°C° 0 mm 3 mps 749 mmHg 92%
01:00 +18°C° 0 mm 3 mps 750 mmHg 92%
02:00 +17°C° 0 mm 3 mps 750 mmHg 96%
03:00 +17°C° 0 mm 3 mps 750 mmHg 93%
04:00 +17°C° 0 mm 3 mps 750 mmHg 90%
05:00 +16°C° 0 mm 3 mps 750 mmHg 88%
06:00 +18°C° 0 mm 3 mps 750 mmHg 84%
07:00 +19°C° 0 mm 3 mps 750 mmHg 81%
08:00 +21°C° 0 mm 4 mps 751 mmHg 78%
09:00 +22°C° 0 mm 4 mps 751 mmHg 73%
10:00 +23°C° 0 mm 4 mps 750 mmHg 69%
11:00 +25°C° 0 mm 4 mps 750 mmHg 64%
12:00 +25°C° 0 mm 4 mps 750 mmHg 63%
13:00 +25°C° 0 mm 4 mps 750 mmHg 62%
14:00 +26°C° 0 mm 4 mps 750 mmHg 57%
15:00 +25°C° 0 mm 4 mps 750 mmHg 60%
16:00 +25°C° 0 mm 3 mps 750 mmHg 63%
17:00 +25°C° 0 mm 3 mps 750 mmHg 66%
18:00 +22°C° 0 mm 3 mps 750 mmHg 70%
19:00 +20°C° 0 mm 2 mps 750 mmHg 75%
20:00 +19°C° 0 mm 2 mps 750 mmHg 79%
21:00 +18°C° 0 mm 2 mps 750 mmHg 81%
22:00 +17°C° 0 mm 2 mps 750 mmHg 83%
23:00 +17°C° 0 mm 2 mps 750 mmHg 85%

Mañana, 8 Agosto, Sábado

Tiempo Temperatura Precipitaciones Viento Presión Humedad
00:00 +16°C° 0 mm 2 mps 750 mmHg 87%
01:00 +16°C° 0 mm 2 mps 750 mmHg 88%
02:00 +16°C° 0 mm 2 mps 750 mmHg 90%
03:00 +15°C° 0 mm 2 mps 750 mmHg 89%
04:00 +15°C° 0 mm 2 mps 749 mmHg 89%
05:00 +15°C° 0 mm 2 mps 749 mmHg 89%
06:00 +17°C° 0 mm 2 mps 749 mmHg 84%
07:00 +19°C° 0 mm 3 mps 749 mmHg 79%
08:00 +20°C° 0 mm 3 mps 750 mmHg 74%
09:00 +21°C° 0 mm 3 mps 749 mmHg 69%
10:00 +22°C° 0 mm 3 mps 749 mmHg 64%
11:00 +24°C° 0 mm 3 mps 749 mmHg 60%
12:00 +25°C° 0 mm 3 mps 749 mmHg 59%
13:00 +25°C° 0 mm 3 mps 748 mmHg 58%
14:00 +25°C° 0 mm 3 mps 748 mmHg 56%
15:00 +25°C° 0 mm 3 mps 748 mmHg 59%
16:00 +25°C° 0 mm 3 mps 747 mmHg 62%
17:00 +24°C° 0 mm 2 mps 747 mmHg 65%
18:00 +23°C° 0 mm 2 mps 747 mmHg 70%
19:00 +20°C° 0 mm 2 mps 747 mmHg 75%
20:00 +18°C° 0 mm 2 mps 747 mmHg 80%
21:00 +18°C° 0 mm 2 mps 747 mmHg 83%
22:00 +17°C° 0 mm 2 mps 746 mmHg 86%
23:00 +17°C° 0 mm 2 mps 746 mmHg 89%

Pasado mañana, 9 Agosto, Domingo

Tiempo Temperatura Precipitaciones Viento Presión Humedad
00:00 +17°C° 0 mm 2 mps 746 mmHg 90%
01:00 +16°C° 0 mm 2 mps 746 mmHg 92%
02:00 +16°C° 0 mm 2 mps 746 mmHg 93%
03:00 +16°C° 0 mm 2 mps 746 mmHg 94%
04:00 +16°C° 0 mm 2 mps 746 mmHg 94%
05:00 +16°C° 0 mm 2 mps 745 mmHg 95%
06:00 +17°C° 0 mm 2 mps 745 mmHg 89%
07:00 +19°C° 0 mm 3 mps 745 mmHg 83%
08:00 +21°C° 0 mm 3 mps 746 mmHg 77%
09:00 +22°C° 0 mm 3 mps 746 mmHg 71%
10:00 +24°C° 0 mm 3 mps 745 mmHg 66%
11:00 +25°C° 0 mm 3 mps 745 mmHg 60%
12:00 +25°C° 0.3 mm 3 mps 745 mmHg 61%
13:00 +25°C° 0.3 mm 3 mps 745 mmHg 62%
14:00 +25°C° 0.3 mm 3 mps 744 mmHg 63%
15:00 +25°C° 0.4 mm 3 mps 744 mmHg 66%
16:00 +25°C° 0.4 mm 2 mps 744 mmHg 68%
17:00 +24°C° 0.4 mm 2 mps 744 mmHg 70%
18:00 +23°C° 0.1 mm 2 mps 744 mmHg 75%
19:00 +20°C° 0.1 mm 2 mps 744 mmHg 81%
20:00 +19°C° 0.1 mm 2 mps 744 mmHg 86%
21:00 +18°C° 0 mm 2 mps 744 mmHg 87%
22:00 +18°C° 0 mm 2 mps 744 mmHg 89%
23:00 +17°C° 0 mm 2 mps 744 mmHg 91%

10 Agosto, Lunes

Tiempo Temperatura Precipitaciones Viento Presión Humedad
00:00 +17°C° 0 mm 2 mps 744 mmHg 92%
01:00 +17°C° 0 mm 2 mps 744 mmHg 93%
02:00 +16°C° 0 mm 2 mps 744 mmHg 94%
03:00 +16°C° 0 mm 2 mps 744 mmHg 94%
04:00 +16°C° 0 mm 2 mps 744 mmHg 95%
05:00 +16°C° 0 mm 2 mps 744 mmHg 95%
06:00 +17°C° 0 mm 2 mps 744 mmHg 90%
07:00 +19°C° 0 mm 2 mps 744 mmHg 85%
08:00 +20°C° 0 mm 2 mps 744 mmHg 80%
09:00 +21°C° 0 mm 3 mps 744 mmHg 73%
10:00 +22°C° 0 mm 3 mps 744 mmHg 67%
11:00 +24°C° 0 mm 3 mps 744 mmHg 60%
12:00 +25°C° 0 mm 3 mps 744 mmHg 58%
13:00 +25°C° 0 mm 3 mps 744 mmHg 56%
14:00 +25°C° 0 mm 3 mps 743 mmHg 53%
15:00 +25°C° 0 mm 3 mps 743 mmHg 57%
16:00 +24°C° 0 mm 2 mps 743 mmHg 61%
17:00 +24°C° 0 mm 2 mps 743 mmHg 64%
18:00 +21°C° 0 mm 2 mps 743 mmHg 68%
19:00 +21°C° 0 mm 1 mps 743 mmHg 73%
20:00 +19°C° 0 mm 1 mps 743 mmHg 77%
21:00 +18°C° 0 mm 1 mps 743 mmHg 78%
22:00 +18°C° 0 mm 1 mps 743 mmHg 79%
23:00 +18°C° 0 mm 1 mps 743 mmHg 79%

11 Agosto, Martes

Tiempo Temperatura Precipitaciones Viento Presión Humedad
00:00 +16°C° 0 mm 1 mps 743 mmHg 81%
01:00 +16°C° 0 mm 1 mps 743 mmHg 82%
02:00 +16°C° 0 mm 2 mps 743 mmHg 83%
03:00 +16°C° 0 mm 2 mps 743 mmHg 83%
04:00 +16°C° 0 mm 2 mps 743 mmHg 84%
05:00 +15°C° 0 mm 2 mps 743 mmHg 85%
06:00 +17°C° 0 mm 2 mps 743 mmHg 81%
07:00 +19°C° 0 mm 2 mps 743 mmHg 77%
08:00 +21°C° 0 mm 3 mps 742 mmHg 73%
09:00 +22°C° 0.3 mm 3 mps 742 mmHg 71%
10:00 +24°C° 0.3 mm 3 mps 742 mmHg 68%
11:00 +25°C° 0.3 mm 2 mps 742 mmHg 66%
12:00 +25°C° 1.3 mm 3 mps 742 mmHg 67%
13:00 +24°C° 1.3 mm 3 mps 742 mmHg 69%
14:00 +24°C° 1.3 mm 3 mps 741 mmHg 70%
15:00 +24°C° 1.1 mm 3 mps 741 mmHg 73%
16:00 +23°C° 1.1 mm 2 mps 741 mmHg 76%
17:00 +23°C° 1.1 mm 2 mps 741 mmHg 78%
18:00 +20°C° 0.2 mm 2 mps 741 mmHg 81%
19:00 +19°C° 0.2 mm 3 mps 741 mmHg 83%
20:00 +17°C° 0.2 mm 3 mps 741 mmHg 86%
21:00 +16°C° 0 mm 3 mps 741 mmHg 87%
22:00 +14°C° 0 mm 4 mps 741 mmHg 88%
23:00 +13°C° 0 mm 4 mps 742 mmHg 89%

12 Agosto, Miércoles

Tiempo Temperatura Precipitaciones Viento Presión Humedad
00:00 +13°C° 0 mm 4 mps 742 mmHg 90%
01:00 +12°C° 0 mm 4 mps 742 mmHg 90%
02:00 +12°C° 0 mm 3 mps 741 mmHg 90%
03:00 +11°C° 0 mm 3 mps 742 mmHg 92%
04:00 +10°C° 0 mm 3 mps 742 mmHg 94%
05:00 +10°C° 0 mm 3 mps 742 mmHg 96%
06:00 +11°C° 0 mm 3 mps 742 mmHg 92%
07:00 +13°C° 0 mm 4 mps 742 mmHg 88%
08:00 +14°C° 0 mm 4 mps 742 mmHg 83%
09:00 +15°C° 0 mm 4 mps 742 mmHg 79%
10:00 +17°C° 0 mm 4 mps 742 mmHg 74%
11:00 +18°C° 0 mm 4 mps 742 mmHg 70%
12:00 +18°C° 0.1 mm 4 mps 742 mmHg 69%
13:00 +18°C° 0.1 mm 4 mps 742 mmHg 68%
14:00 +18°C° 0.1 mm 4 mps 742 mmHg 67%
15:00 +18°C° 0.1 mm 4 mps 742 mmHg 69%
16:00 +18°C° 0.1 mm 4 mps 742 mmHg 72%
17:00 +17°C° 0.1 mm 4 mps 742 mmHg 75%
18:00 +15°C° 0.1 mm 4 mps 742 mmHg 80%
19:00 +13°C° 0.1 mm 4 mps 743 mmHg 85%
20:00 +12°C° 0.1 mm 3 mps 743 mmHg 90%
21:00 +12°C° 0 mm 3 mps 743 mmHg 91%
22:00 +11°C° 0 mm 3 mps 743 mmHg 92%
23:00 +11°C° 0 mm 3 mps 743 mmHg 94%
Mostrar más